#timestamp,LO_Frequency,Hit,StdDev 
1568714415.2,286047001.6,N
1568714435.0,286046999.9,N
1568714435.9,286046999.9,N
1568714455.8,286047000.1,N
1568714475.6,286046999.7,N
1568714495.5,286046998.1,N
1568714515.3,286046999.4,N
1568714535.1,286046997.0,N
1568714555.9,286046997.4,N
1568714575.7,286046995.2,N
1568714595.5,286046994.9,N
1568714615.4,286046997.0,N
1568714635.2,286046998.9,N
1568714655.1,286046998.7,N
1568714656.0,286046998.7,N
1568714675.8,286046999.1,N
1568714695.6,286046997.0,N
1568714715.5,286046997.3,N
1568714735.3,286046999.3,N
1568714755.2,286046996.7,N
1568714775.9,286046997.0,N
1568714795.7,286046999.0,N
1568714815.6,286046999.5,N
1568714835.4,286047000.8,N
1568714855.2,286047001.2,N
1568714875.1,286047000.4,N
1568714876.0,286047000.4,N
1568714895.8,286047000.4,N
1568714915.7,286047001.0,N
1568714935.5,286047000.6,N
1568714955.3,286046998.6,N
1568714975.2,286046996.9,N
1568714995.0,286046996.7,N
1568714995.9,286046996.7,N
1568715015.8,286046997.2,N
1568715035.6,286046997.9,N
1568715055.4,286046997.7,N
1568715075.3,286046997.6,N
1568715095.1,286046997.9,N
1568715115.9,286046996.9,N
1568715135.7,286046998.3,N
1568715155.5,286047001.1,N
1568715175.4,286047000.7,N
1568715195.2,286046999.0,N
1568715215.0,286046998.6,N
1568715216.0,286046998.6,N
1568715235.8,286046998.2,N
1568715255.7,286047001.1,N
1568715275.5,286046998.2,N
1568715295.3,286047000.9,N
1568715315.2,286046998.8,N
1568715335.0,286046996.6,N
1568715335.9,286046996.6,N
1568715355.8,286046998.9,N
1568715375.6,286046998.5,N
1568715395.4,286046999.0,N
1568715415.3,286046998.9,N
1568715435.1,286046996.5,N
1568715455.9,286046997.3,N
1568715475.7,286046997.0,N
1568715495.5,286046997.7,N
1568715515.4,286046999.3,N
1568715535.2,286046998.6,N
1568715555.0,286047000.9,N
1568715555.9,286047000.9,N
1568715575.8,286047000.3,N
1568715595.6,286047001.0,N
1568715615.5,286047000.4,N
1568715635.3,286047000.4,N
1568715655.1,286046998.1,N
1568715675.9,286046998.3,N
1568715695.7,286046998.4,N
1568715715.5,286046998.3,N
1568715735.4,286047000.5,N
1568715755.2,286046998.3,N
1568715775.1,286046998.5,N
1568715776.0,286046998.5,N
1568715795.8,286046999.0,N
1568715815.6,286046997.5,N
1568715835.5,286046999.5,N
1568715855.3,286046999.2,N
1568715875.2,286046996.8,N
1568715895.9,286046997.4,N
1568715915.7,286046997.7,N
1568715935.6,286046996.9,N
1568715955.4,286046996.6,N
1568715975.2,286046998.5,N
1568715995.1,286046998.4,N
1568715996.0,286046998.4,N
1568716015.8,286046998.5,N
1568716035.7,286047001.1,N
1568716055.5,286047001.0,N
1568716075.3,286047000.7,N
1568716095.2,286047000.3,N
1568716115.0,286047000.4,N
1568716115.9,286047000.4,N
1568716135.8,286047000.7,N
1568716155.6,286047000.3,N
1568716175.4,286047000.5,N
1568716195.3,286047000.4,N
1568716215.1,286046999.9,N
1568716235.8,286047000.6,N
1568716255.7,286046999.9,N
1568716275.5,286047004.0,N
1568716295.4,286047001.6,N
1568716315.2,286047004.1,N
1568716335.0,286046999.7,N
1568716335.9,286046999.7,N
1568716355.8,286047002.7,N
1568716375.6,286047002.5,N
1568716395.4,286047000.1,N
1568716415.3,286047000.3,N
1568716435.1,286046999.8,N
1568716455.9,286046999.9,N
1568716475.7,286047000.6,N
1568716495.5,286046998.7,N
1568716515.4,286046998.8,N
1568716535.2,286046998.8,N
1568716555.1,286046998.6,N
1568716556.0,286046998.6,N
1568716575.8,286046998.6,N
1568716595.6,286047001.1,N
1568716615.5,286047000.0,N
1568716635.3,286047000.3,N
1568716655.2,286047002.6,N
1568716675.9,286047001.6,N
1568716695.7,286046999.8,N
1568716715.6,286047000.0,N
1568716735.4,286047000.2,N
1568716755.2,286047000.1,N
1568716775.1,286047002.4,N
1568716776.0,286047002.4,N
1568716795.8,286047000.0,N
1568716815.7,286047000.3,N
1568716835.5,286047000.0,N
1568716855.3,286047002.6,N
1568716875.2,286047002.5,N
1568716895.0,286046999.9,N
1568716895.9,286046999.9,N
1568716915.8,286047001.0,N
1568716935.6,286047001.1,N
1568716955.4,286047000.6,N
1568716975.3,286047000.4,N
1568716995.1,286047000.2,N
1568717015.8,286047002.0,N
1568717035.7,286047003.1,N
1568717055.5,286047003.2,N
1568717075.4,286047003.9,N
1568717095.2,286047005.4,Y
1568717115.0,286047002.9,P
1568717115.9,286047002.9,N
1568717135.8,286047005.8,P
1568717155.6,286047005.0,N
1568717175.5,286047004.5,N
1568717195.3,286047007.2,Y
1568717215.1,286047003.4,P
1568717235.9,286047005.0,P
1568717255.7,286047007.6,P
1568717275.6,286047004.7,N
1568717295.4,286047003.1,N
1568717315.2,286047006.0,Y
1568717335.1,286047001.1,P
1568717336.0,286047001.1,N
1568717355.8,286047000.5,N
1568717375.7,286047000.8,N
1568717395.5,286047000.6,N
1568717415.3,286047000.7,N
1568717435.2,286046998.1,N
1568717455.0,286046999.5,N
1568717455.9,286046999.5,N
1568717475.7,286046999.1,N
1568717495.6,286046998.7,N
1568717515.4,286046998.5,N
1568717535.3,286046999.4,N
1568717555.1,286046999.6,N
1568717556.0,286046999.6,N
1568717575.8,286046997.2,N
1568717595.7,286046996.7,N
1568717615.5,286046999.6,N
1568717635.4,286046997.0,N
1568717655.2,286046997.7,N
1568717675.0,286046996.7,N
1568717675.9,286046996.7,N
1568717695.8,286046996.8,N
1568717715.6,286046997.3,N
1568717735.5,286046997.5,N
1568717755.3,286046995.3,N
1568717775.1,286046996.3,N
1568717795.9,286046996.3,N
1568717815.7,286046995.7,N
1568717835.5,286046995.8,N
1568717855.4,286046995.9,N
1568717875.2,286046995.9,N
1568717895.1,286046993.5,Y
1568717896.0,286046993.5,P
1568717915.8,286046995.1,N
1568717935.6,286046995.2,N
1568717955.5,286046997.6,N
1568717975.3,286046995.3,N
1568717995.2,286046995.4,N
